Location: Chiroubles
(46.1812°N, 4.6660°E)
Time: 06:38:02
(UTC+00:00)

Transit 4A - Pass Details

Date: 02 December 2020
Orbit: 864 x 980 km, 66.8° (Epoch: 25 January)

Event Time Altitude Azimuth Distance (km) Brightness Sun altitude
Rises 11:57:19 0° 318° (NW) 3,691 10.7 21.5°
Reaches altitude 10° 12:02:00 10° 349° (NNW) 2,739 9.9 21.4°
Maximum altitude 12:04:19 12° 10° (N) 2,590 9.7 21.3°
Drops below altitude 10° 12:06:38 10° 32° (NNE) 2,726 9.9 21.3°
Sets 12:11:16 0° 62° (ENE) 3,652 10.7 21.1°
